Home   Weather   Gorzów Wielkopolski   Past weeks

Flag for Poland Past Weather in Gorzów Wielkopolski, Poland — Yesterday and Last 2 Weeks

Now
35 °F

Fog.


Feels Like: 35 °F
Forecast: 30 / 35 °F
Wind: 1 mph from South

Location: Gorzow Wlkp

Current Time: Dec 6, 2016 at 5:16:13 pm

Latest Report: Dec 6, 2016 at 4:00 pm


Visibility: 1 mi

Pressure: 30.45 "Hg

Humidity: 97%

Dew Point: 35 °F

Location of Gorzów WielkopolskiLocation

Past Weather in Gorzów Wielkopolski — Graph

°F

Gorzów Wielkopolski Temperature Yesterday

Maximum temperature yesterday: 31 °F (at 12:00 am)
Minimum temperature yesterday: 24 °F (at 9:00 am)
Average temperature yesterday: 27 °F

High & Low Weather Summary for the Past Weeks

 TemperatureHumidityPressure
High52 °F (Nov 22, 2:00 pm)100% (Nov 23, 10:00 am)30.47 "Hg (Nov 23, 10:00 am)
Low24 °F (Dec 5, 9:00 am)55% (Nov 29, 2:00 pm)29.59 "Hg (Dec 2, 12:00 am)
Average36 °F90%30.16 "Hg
* Reported Nov 21 4:00 pm — Dec 6 4:00 pm, Gorzów Wielkopolski, Weather by CustomWeather, © 2016

Note: Actual official high and low records may vary slightly from our data, if they occured in-between our weather recording intervals... More about our weather records

Advertising

Gorzów Wielkopolski Weather History for the Previous 24 Hours

Scroll right to see more
 ConditionsComfort  
Time TempWeatherWind HumidityBarometerVisibility
4:00 pm
Tue, Dec 6
35 °FFog.1 mph97%30.45 "Hg1 mi
3:00 pm36 °FFog.1 mph96%30.42 "Hg1 mi
2:00 pm36 °FFog.2 mph94%30.41 "Hg2 mi
1:00 pm36 °FFog.2 mph94%30.40 "Hg2 mi
12:00 pm36 °FFog.2 mph95%30.39 "Hg2 mi
11:00 am35 °FLow clouds.2 mph96%30.37 "Hg2 mi
10:00 am34 °FLow clouds.3 mph96%30.36 "Hg2 mi
9:00 am33 °FLight freezing rain. Low clouds.3 mph96%30.34 "Hg1 mi
8:00 am33 °FLight freezing rain. Scattered clouds.5 mph96%30.32 "Hg2 mi
7:00 am33 °FFog.3 mph98%30.29 "Hg2 mi
6:00 am31 °FFog.2 mph98%30.28 "Hg2 mi
5:00 am31 °FLow clouds.1 mph98%30.27 "Hg2 mi
4:00 am32 °FLight freezing rain. Low clouds.3 mph98%30.27 "Hg2 mi
3:00 am31 °FLight freezing rain. Low clouds.2 mph98%30.27 "Hg2 mi
2:00 am30 °FFog.2 mph98%30.27 "Hg2 mi
1:00 am31 °FFog.2 mph97%30.26 "Hg2 mi
12:00 am29 °FFog.2 mph97%30.26 "Hg3 mi
11:00 pm
Mon, Dec 5
28 °FFog.3 mph97%30.26 "Hg3 mi
10:00 pm28 °FFog.3 mph98%30.27 "Hg25 mi
9:00 pm28 °FFog.2 mph98%30.27 "Hg2 mi
8:00 pm26 °FFog.2 mph97%30.27 "Hg2 mi
7:00 pm27 °FFog.2 mph96%30.28 "Hg2 mi
6:00 pm28 °FFog.3 mph96%30.27 "Hg2 mi
5:00 pm28 °FFog.3 mph96%30.28 "Hg2 mi
Weather by CustomWeather, © 2016

See weather overviewHow to use our weather pages